Regional Weather Roundup
Issued by NWS

Home | Current Version | Previous Version | Text Only | Print | Product List | Glossary On
Versions: 1 2 3 4 5 6 7 8 9 10 11 12 13 14 15 16 17 18 19 20 21 22 23 24 25 26 27 28
000
ASUS42 KKEY 230910
RWRKEY

FLORIDA REGIONAL WEATHER ROUNDUP FOR THE FLORIDA KEYS
NATIONAL WEATHER SERVICE KEY WEST FLORIDA
500 AM EDT SAT JUL 23 2016

...SOUTH FLORIDA AND THE KEYS...

CITY           SKY/WX    TMP DP  RH WIND       PRES   REMARKS
FORT MYERS     PTCLDY    74  71  91 E3        30.02F
SW REGIONAL AP PTCLDY    74  71  91 NE3       30.02F
NAPLES         CLEAR     73  72  96 N3        30.01F
MIAMI          PTCLDY    77  74  90 N5        30.02R
WEST KENDALL   CLEAR     72  72 100 CALM      30.02R
HOMESTEAD      CLEAR     76  74  95 N3        30.01R
MARATHON       PTCLDY    81  76  84 CALM      29.99F
BOCA CHICA NAS CLEAR     82  76  81 CALM      30.00S
KEY WEST INTL  CLEAR     82  78  88 E5        30.00S HX  91

...INTERNATIONAL WEATHER...

CITY           SKY/WX    TMP DP  RH WIND       PRES   REMARKS
NASSAU BAHAMAS MOCLDY    77  73  88 CALM      30.00F
CANCUN MEXICO  PTCLDY    77  77 100 CALM      29.98F
COZUMEL MEXICO PTCLDY    73  73 100 CALM      29.97F

ADJACENT COASTAL WATERS...

STATION/POSITION TIME  SKY/WX   TEMP    WIND        PRES    WAVE
                                AIR SEA DIR/SP/G            HT/PER
                 (UTC)          (F)     (DEG/KT/KT) (MB)    (FT/S)
PULASKI SHOAL LI 0900            83     150/  7/  8 1016.0S
SAND KEY         0850            83     140/  7/  8 1016.3S
LONG KEY         0800            83 86  140/  6/  7 1016.3F
FOWEY ROCKS      0900            82 84     CALM     1016.8R

$$




USA.gov is the U.S. government's official web portal to all federal, state and local government web resources and services.